TimeEST,TemperatureF,Dew PointF,Humidity,Sea Level PressureIn,VisibilityMPH,Wind Direction,Wind SpeedMPH,Gust SpeedMPH,PrecipitationIn,Events,Conditions,WindDirDegrees,DateUTC
12:53 AM,63.0,59.0,87,29.95,10.0,NNE,3.5,-,N/A,,Scattered Clouds,20,2012-11-06 05:53:00
1:53 AM,63.0,59.0,87,29.92,10.0,Calm,Calm,-,N/A,,Scattered Clouds,0,2012-11-06 06:53:00
2:53 AM,62.1,57.9,86,29.90,10.0,Calm,Calm,-,N/A,,Scattered Clouds,0,2012-11-06 07:53:00
3:53 AM,63.0,59.0,87,29.92,10.0,Calm,Calm,-,N/A,,Scattered Clouds,0,2012-11-06 08:53:00
4:53 AM,64.0,60.1,87,29.92,10.0,Calm,Calm,-,N/A,,Scattered Clouds,0,2012-11-06 09:53:00
5:53 AM,64.9,61.0,87,29.90,8.0,South,4.6,-,N/A,,Scattered Clouds,170,2012-11-06 10:53:00
6:53 AM,66.0,61.0,84,29.92,8.0,SSE,3.5,-,N/A,,Overcast,160,2012-11-06 11:53:00
7:53 AM,66.0,62.1,87,29.95,5.0,Calm,Calm,-,0.02,Rain,Light Rain,0,2012-11-06 12:53:00
8:53 AM,64.9,63.0,93,29.95,3.0,Calm,Calm,-,0.03,Rain,Light Rain,0,2012-11-06 13:53:00
9:53 AM,66.9,63.0,87,29.95,5.0,East,3.5,-,0.02,,Overcast,80,2012-11-06 14:53:00
10:53 AM,70.0,63.0,78,29.93,9.0,Calm,Calm,-,N/A,,Mostly Cloudy,0,2012-11-06 15:53:00
11:53 AM,70.0,63.0,78,29.90,10.0,SW,6.9,-,N/A,,Mostly Cloudy,220,2012-11-06 16:53:00
12:53 PM,72.0,63.0,73,29.87,10.0,South,8.1,-,N/A,,Mostly Cloudy,180,2012-11-06 17:53:00
1:53 PM,72.0,64.0,76,29.86,10.0,SW,6.9,-,N/A,,Mostly Cloudy,220,2012-11-06 18:53:00
2:53 PM,73.9,64.0,71,29.84,10.0,SW,5.8,-,N/A,,Scattered Clouds,220,2012-11-06 19:53:00
3:53 PM,75.0,60.1,60,29.84,10.0,West,10.4,-,N/A,,Partly Cloudy,270,2012-11-06 20:53:00
4:53 PM,73.0,61.0,66,29.85,10.0,West,10.4,-,N/A,,Partly Cloudy,280,2012-11-06 21:53:00
5:53 PM,71.1,57.9,63,29.86,10.0,WNW,8.1,19.6,N/A,,Partly Cloudy,290,2012-11-06 22:53:00
6:53 PM,69.1,60.1,73,29.87,10.0,WNW,4.6,-,N/A,,Scattered Clouds,300,2012-11-06 23:53:00
7:53 PM,69.1,54.0,58,29.90,10.0,WNW,13.8,19.6,N/A,,Clear,290,2012-11-07 00:53:00
8:53 PM,66.0,51.1,59,29.91,10.0,WNW,3.5,-,N/A,,Partly Cloudy,300,2012-11-07 01:53:00
9:53 PM,64.0,52.0,65,29.91,10.0,NW,5.8,-,N/A,,Partly Cloudy,310,2012-11-07 02:53:00
10:53 PM,63.0,53.1,70,29.91,10.0,NW,4.6,-,N/A,,Partly Cloudy,310,2012-11-07 03:53:00
11:53 PM,63.0,53.1,70,29.90,10.0,WNW,4.6,-,N/A,,Partly Cloudy,300,2012-11-07 04:53:00